Regional Weather Roundup
Issued by NWS Sterling, VA

Home | Current Version | Previous Version | Text Only | Print | Product List | Glossary On
Versions: 1 2 3 4 5 6 7 8 9 10 11 12 13 14 15 16 17 18 19 20 21 22 23 24 25 26 27 28
000
ASUS41 KLWX 240911
RWRLWX

REGIONAL WEATHER ROUNDUP
NATIONAL WEATHER SERVICE BALTIMORE MD/WASHINGTON DC
500 AM EDT THU AUG 24 2017

Note: "FAIR" indicates few or no clouds below 12,000 feet
with no significant weather and/or obstructions to visibility.
 TC=TEMPERATURE CELSIUS

 * =Non NWS site. Station does not report precipitation (e.g. rain,
    snow, etc.), thunder, or fog.

DCZ001-MDZ009-015-VAZ040>042-051-053>054-241000-
WASHINGTON METRO

CITY           SKY/WX    TMP DP  RH WIND       PRES   REMARKS
WASHINGTON NAT CLOUDY    73  59  61 NW8       29.93R
DULLES         CLOUDY    65  61  87 CALM      29.94R
ANDREWS AFB    CLOUDY    67  59  74 NW6       29.92R
FT BELVOIR     CLOUDY    70  59  69 NW5       29.92R
QUANTICO       CLOUDY    71  60  68 NW3       29.94R
COLLEGE PARK*  CLOUDY    67  60  79 CALM      29.92R
LEESBURG*      CLOUDY    64  63  94 CALM      29.95S
MANASSAS*      CLOUDY    68  59  73 CALM      29.94R
GAITHERSBURG*  CLOUDY    63  58  83 CALM      29.95R

$$

MDZ006>007-011-014-241000-
BALTIMORE METRO

CITY           SKY/WX    TMP DP  RH WIND       PRES   REMARKS
BWI AIRPORT    CLOUDY    67  60  78 NW3       29.92R
MD SCIENCE CTR   N/A     73  55  53 MISG      29.93R
MARTIN STATE   CLOUDY    68  61  77 NW5       29.93R
ANNAPOLIS      CLOUDY    74  62  66 N7        29.90S
FORT MEADE*    CLOUDY    63  61  94 CALM      29.95R

$$

MDZ012-015-019>023-241000-
MARYLAND EASTERN SHORE

CITY           SKY/WX    TMP DP  RH WIND       PRES   REMARKS
OCEAN CITY     CLEAR     65  64  97 NW6       29.90R
SALISBURY      MOCLDY    65  62  90 CALM      29.90R
BAY BRIDGE AP* CLOUDY    73  57  56 N6        29.91S
CAMBRIDGE*     CLOUDY    66  63  88 CALM      29.91R
EASTON*        CLEAR     64  61  88 NE3       29.95R

$$

MDZ017>025-241000-
SOUTHERN MARYLAND

CITY           SKY/WX    TMP DP  RH WIND       PRES   REMARKS
PATUXENT RIVER CLOUDY    70  68  93 NW6       29.90R
ST INIGOES     CLOUDY    69  68  96 CALM      29.90R
LEONARDTOWN*   CLOUDY    68  64  88 CALM      29.92S

$$

MDZ003>005-241000-
NORTH CENTRAL MARYLAND

CITY           SKY/WX    TMP DP  RH WIND       PRES   REMARKS
FREDERICK*     CLOUDY    63  63 100 CALM      29.97R
HAGERSTOWN APT MOCLDY    62  56  80 NW5       29.95R
WESTMINSTER*   MOCLDY    63  57  82 N3        29.95S

$$

MDZ501>502-241000-
WESTERN MARYLAND

CITY           SKY/WX    TMP DP  RH WIND       PRES   REMARKS
OAKLAND*       CLEAR     54  46  76 W3        30.01S
CUMBERLAND*    CLEAR     55  55 100 CALM      30.02R

$$

VAZ025>031-241000-
SHENANDOAH VALLEY

CITY           SKY/WX    TMP DP  RH WIND       PRES   REMARKS
WINCHESTER*    MOCLDY    61  54  77 NW5       29.96R
FRONT ROYAL*   MOCLDY    63  59  88 CALM      29.95S
LURAY*         CLOUDY    64  61  88 CALM      29.97R
NEW MARKET*    PTCLDY    60  56  88 CALM      29.97S
STAUNTON*      CLOUDY    60  57  91 CALM      29.99S
WAYNESBORO*    CLOUDY    61  59  95 SW5       29.99R

$$

WVZ021-048>050-054>055-241000-
EASTERN WEST VIRGINIA PANHANDLE

CITY           SKY/WX    TMP DP  RH WIND       PRES   REMARKS
MARTINSBURG    MOCLDY    59  56  89 CALM      29.95R
PETERSBURG*    CLOUDY    59  58  97 CALM      30.00S

$$

VAZ036>039-050-241000-
CENTRAL FOOTHILLS

CITY           SKY/WX    TMP DP  RH WIND       PRES   REMARKS
CHARLOTTESVILL CLOUDY    68  66  93 CALM      29.94S
CULPEPER*      CLOUDY    67  61  80 CALM      29.95R
ORANGE*        CLOUDY    68  59  73 N6        29.94R
GORDONSVILLE*  CLOUDY    65  65 100 CALM      29.93S
WARRENTON*     CLOUDY    69  55  61 CALM      29.93R

$$

VAZ055>057-241000-
NORTH AND CENTRAL PIEDMONT

CITY           SKY/WX    TMP DP  RH WIND       PRES   REMARKS
FREDERICKSBRG* CLOUDY    71  60  68 N5        29.92R
STAFFORD*      CLOUDY    66  63  91 N6        29.97R

$$

NCZ024-NYZ072-PAZ021-071-VAZ022-071-241000-
OTHER REGIONAL OBSERVATIONS

CITY           SKY/WX    TMP DP  RH WIND       PRES   REMARKS
NEW YORK CITY  CLEAR     67  56  67 CALM      29.92R
PHILADELPHIA   PTCLDY    67  55  65 N7        29.91R
PITTSBURGH     MOCLDY    59  57  93 W3        29.98S
ROANOKE        CLOUDY    67  60  78 N6        29.98S
RICHMOND       CLOUDY    68  66  93 N3        29.91R
RALEIGH        CLOUDY    74  72  93 NE6       29.90R

$$

ANZ530>537-241000-
MARINE OBSERVATIONS

STATION/POSITION TIME  TEMP    WIND        PRES
                       AIR SEA DIR/SP/G
                 (UTC) (F)     (DEG/KT/KT) (MB)
THOMAS PT LIGHT  0900   74 80  360/ 10/ 11   N/A
BALT KEY BRIDGE  0842   73     330/  9/ 11 1012.8R
COVE POINT       0842   76      60/ 10/ 12 1013.3R
LEWISETTA        0842   76 81   40/  7/ 12 1012.4R
SOLOMONS ISLAND  0842   72 81  320/  4/  5   N/A
PINEY POINT      0842           40/  6/  7   N/A

$$





USA.gov is the U.S. government's official web portal to all federal, state and local government web resources and services.